Orbital Elements at Epoch 2459200.5 (2020-Dec-17.0) TDB
Reference: JPL 18 (heliocentric ecliptic J2000)
Element | Value | Uncertainty (1-sigma) | Units |
e | .08819751244903068 | 3.9694e-08 | |
a | 2.998238443096999 | 2.2384e-08 | au |
q | 2.73380127068679 | 1.296e-07 | au |
i | 9.527589504601082 | 6.8441e-06 | deg |
node | 195.164295318461 | 2.0143e-05 | deg |
peri | 247.1739145903933 | 4.5285e-05 | deg |
M | 300.5263414923916 | 4.1305e-05 | deg |
tp | 2459513.770740355223 (2021-Oct-26.27074036) | 0.00021896 | TDB |
period | 1896.259106263872 5.19 | 2.1236e-05 5.814e-08 | d yr |
n | .189847473275577 | 2.126e-09 | deg/d |
Q | 3.262675615507209 | 2.4358e-08 | au |
|
| | Orbit Determination Parameters
Additional Information
|